Location: Unspecified
(0.0000°N, 0.0000°E)
Time: 13:55:02
(UTC+02:00)

Resurs 01 Rocket - Visible Passes

Search period start: 25 October 2014 00:00
Search period end: 03 November 2014 23:00
Orbit: 637 x 645 km, 98.2° (Epoch: 24 October)

Date Brightness Start Highest point End Pass type
(mag) Time Alt. Az. Time Alt. Az. Time Alt. Az.
26 Oct 3.1 19:22:46 10° S 19:26:56 41° WSW 19:31:05 10° NNW visible
27 Oct 5.4 06:00:48 10° E 06:02:33 12° ESE 06:04:17 10° SE visible
27 Oct 4.6 19:47:28 10° SSW 19:50:38 20° WSW 19:53:50 10° NW visible
30 Oct 3.0 19:21:21 10° S 19:25:33 44° WSW 19:29:46 10° NNW visible
31 Oct 5.5 05:59:46 10° E 06:01:10 11° ESE 06:02:34 10° ESE visible
31 Oct 4.5 19:45:57 10° SSW 19:49:16 21° WSW 19:52:34 10° NW visible
03 Nov 2.9 19:19:55 10° S 19:24:10 47° WSW 19:28:24 10° NNW visible
